Flag for France Weather past 2 weeks in Aurillac, France

Now
43 °F

Overcast.


Feels Like: 39 °F
Forecast: 39 / 45 °F
Wind: 8 mph from Northwest

Location: Aurillac

Current Time: Apr 1, 2015 at 12:47:22 AM

Latest Report: Apr 1, 2015 at 12:00 AM


Visibility: 9 mi

Pressure: 30.35 "Hg

Humidity: 83%

Dew point: 38 °F

Location of AurillacLocation

Historic Weather in Aurillac — Graph

°F

Aurillac temperature yesterday

Maximum temperature yesterday: 52 °F (at 3:00 PM)
Minimum temperature yesterday: 46 °F (at 10:00 PM)
Average temperature yesterday: 48 °F

Past Weeks' High & Low Weather Summary

 TemperatureHumidityPressure
High63 °F (Mar 19, 4:00 PM)96% (Mar 25, 5:00 AM)30.36 "Hg (Mar 25, 5:00 AM)
Low28 °F (Mar 26, 7:00 AM)30% (Mar 19, 3:00 PM)29.72 "Hg (Mar 24, 5:00 PM)
Average46 °F76%30.08 "Hg
* Reported Mar 16 9:00 PM — Mar 31 10:00 PM, Aurillac, Weather by CustomWeather, © 2015

Note: Actual official high and low records may vary slightly from our data, if they occured in-between our weather recording intervals... More about our weather records

Advertising

Aurillac weather history for previous 24 hours

 ConditionsComfort  
Time TempWeatherWind HumidityBarometerVisibility
10:00 PM
Tue, Mar 31
46 °FRain. Passing clouds.20 mph81%30.31 "Hg10 mi
9:00 PM48 °FCool.15 mph82%30.28 "Hg12 mi
8:00 PM49 °FOvercast.15 mph82%30.25 "Hg37 mi
7:00 PM51 °FCool.17 mph78%30.23 "Hg12 mi
6:00 PM51 °FPartly sunny.17 mph78%30.24 "Hg25 mi
5:00 PM51 °FPartly sunny.20 mph83%30.24 "Hg6 mi
4:00 PM51 °FDrizzle. Low clouds.16 mph89%30.24 "Hg5 mi
3:00 PM52 °FLow clouds.24 mph84%30.24 "Hg6 mi
2:00 PM50 °FLow clouds.18 mph89%30.26 "Hg6 mi
1:00 PM48 °FRain. Low clouds.16 mph91%30.28 "Hg3 mi
12:00 PM47 °FOvercast.14 mph89%30.28 "Hg6 mi
11:00 AM47 °FLow clouds.15 mph92%30.28 "Hg7 mi
10:00 AM46 °FDrizzle. Low clouds.17 mph94%30.27 "Hg2 mi
9:00 AM47 °FDrizzle. Low clouds.13 mph95%30.25 "Hg2 mi
8:00 AM47 °FDrizzle. Low clouds.12 mph95%30.24 "Hg6 mi
7:00 AM47 °FDrizzle. Low clouds.9 mph95%30.23 "Hg1 mi
6:00 AM47 °FDrizzle. Low clouds.10 mph95%30.23 "Hg2 mi
4:00 AM46 °FDrizzle. Low clouds.9 mph95%30.24 "Hg2 mi
3:00 AM46 °FLow clouds.6 mph95%30.27 "Hg1 mi
2:00 AM47 °FLow clouds.8 mph95%30.29 "Hg11 mi
1:00 AM47 °FDrizzle. Low clouds.7 mph94%30.29 "Hg2 mi
12:00 AM47 °FDrizzle. Low clouds.10 mph94%30.28 "Hg4 mi
Weather by CustomWeather, © 2015

See weather overviewHow to use our weather pages